sat.trackr.live / text

‹ back to catalog

TRANSPORTER-15 OBJECT AB

NORAD 66691 · 2025-276AB

PAYLOAD ACTIVE UNKNOWN

§ Identity

Operator
Country
TBD
Launch date
2025-11-28
Launch site
AFWTR
Launch vehicle
Mass (kg)
RCS (m²)

External: N2YO · Heavens-Above · Gunter

§ Orbital elements

Epoch: 2026-09-20T10:24:12.289248Z

Period
94.60 min
Inclination
97.4121°
Eccentricity
0.0005185
Mean motion
15.22273832 rev/d
Perigee alt
495.4 km
Apogee alt
502.5 km
Semi-major
6,877.1 km
B*
2.4701e-4
RAAN
335.7563°
Arg perigee
41.1806°
Mean anomaly
318.9821°
Rev number
4,491

§ Raw data

TRANSPORTER-15 OBJECT AB1 66691U 25276AB  26263.43347557  .00005618  00000+0  24701-3 0  99932 66691  97.4121 335.7563 0005185  41.1806 318.9821 15.22273832 44910

JSON: /api/v1/satellites/66691 · /tle

For live sub-satellite position, see the globe view (requires WebGL).

§ Visibility from observer

Set your observer location to see the next 7 days of passes ≥ 10°. The values pass through the URL so the page stays shareable.

No JS? Fill the form by hand. The geolocation button needs JavaScript.